This is the latest recevied weather packets stored in our database for station/object K5GHS-1. If no packets are shown the sender has not sent any weather packets the latest 10 day(s).
| Time | Temp. | Humidity | Pressure | Rain* | Wind** | Luminosity | Snow |
|---|---|---|---|---|---|---|---|
| 1788030673 | 38.33° C | 35% | 1015.1 hPa | 0 mm | - | 629 W/m² | - |
| 1788030368 | 37.78° C | 36% | 1014.9 hPa | 0 mm | - | 621 W/m² | - |
| 1788030063 | 37.78° C | 37% | 1015.1 hPa | 0 mm | - | 671 W/m² | - |
| 1788029757 | 37.78° C | 37% | 1015.3 hPa | 0 mm | - | 711 W/m² | - |
| 1788029452 | 37.78° C | 37% | 1015.1 hPa | 0 mm | - | 684 W/m² | - |
| 1788029152 | 38.33° C | 37% | 1015.2 hPa | 0 mm | - | 660 W/m² | - |
| 1788028851 | 37.78° C | 37% | 1015.4 hPa | 0 mm | - | 691 W/m² | - |
| 1788028546 | 37.78° C | 37% | 1015.4 hPa | 0 mm | - | 214 W/m² | - |
| 1788028242 | 37.22° C | 37% | 1015.5 hPa | 0 mm | - | 633 W/m² | - |
| 1788027937 | 37.78° C | 37% | 1015.5 hPa | 0 mm | - | 630 W/m² | - |
| 1788027632 | 37.78° C | 37% | 1015.6 hPa | 0 mm | - | 647 W/m² | - |
| 1788027332 | 37.78° C | 38% | 1015.6 hPa | 0 mm | - | 664 W/m² | - |
| 1788027025 | 37.78° C | 38% | 1015.6 hPa | 0 mm | - | 676 W/m² | - |
| 1788026720 | 37.22° C | 38% | 1015.8 hPa | 0 mm | - | 665 W/m² | - |
| 1788026416 | 37.22° C | 39% | 1015.7 hPa | 0 mm | - | 666 W/m² | - |
| 1788026115 | 37.22° C | 39% | 1016 hPa | 0 mm | - | 650 W/m² | - |
| 1788025809 | 36.67° C | 40% | 1015.9 hPa | 0 mm | - | 638 W/m² | - |
| 1788025503 | 36.67° C | 40% | 1016.1 hPa | 0 mm | - | 636 W/m² | - |
| 1788025198 | 37.22° C | 39% | 1016 hPa | 0 mm | - | 662 W/m² | - |
| 1788024893 | 37.22° C | 40% | 1016.1 hPa | 0 mm | - | 673 W/m² | - |
| 1788024588 | 37.22° C | 41% | 1016.3 hPa | 0 mm | - | 641 W/m² | - |
| 1788024283 | 36.67° C | 41% | 1016.1 hPa | 0 mm | - | 651 W/m² | - |
| 1788023978 | 36.67° C | 42% | 1016.4 hPa | 0 mm | - | 729 W/m² | - |
| 1788023673 | 36.67° C | 42% | 1016.5 hPa | 0 mm | - | 701 W/m² | - |
| 1788023364 | 36.11° C | 42% | 1016.3 hPa | 0 mm | - | 662 W/m² | - |
* Rain latest hour (hover to see other rain measurements)
** Current wind speed in m/s (hover to see current wind gust speed)